[[{"header":{"parameterUnit":"m.s-1","parameterCategory":2,"la1":30.2992,"la2":30.254,"lo1":-89.0895,"lo2":-89.0443,"dy":0.0025,"dx":0.0025,"nx":19,"ny":19,"refTime":"2026-04-08T03:00:00:Z","depth":"0","parameterNumber":2,"parameterNumberName":"U-component_of_CURRENTS"},"data":[0,0,0,-0.2318,-0.2319,-0.2391,-0.2391,-0.2447,-0.2447,0,0,0,0,0,0,0,0,0,0,0,-0.228,-0.228,-0.2317,-0.232,-0.2391,-0.2391,-0.2446,-0.2447,0,0,0,0,0,0,0,0,0,0,0,-0.228,-0.228,-0.2281,-0.232,-0.2391,-0.2391,-0.2446,-0.24,0,0,0,0,0,0,0,0,0,0,-0.2334,-0.2296,-0.228,-0.2281,-0.232,-0.239,-0.2391,-0.2398,-0.2403,-0.2406,0,-0.2415,0,-0.2441,-0.2451,-0.2451,0,0,0,-0.2313,-0.2292,-0.2326,-0.2281,-0.2321,-0.239,-0.2357,-0.2401,-0.2406,-0.2413,-0.2416,-0.2419,-0.2442,-0.2451,-0.2451,-0.2557,-0.2558,0,0,-0.2309,-0.228,-0.2322,-0.2329,-0.2336,-0.2354,-0.2359,-0.2404,-0.2399,-0.2416,-0.2421,-0.2443,-0.2451,-0.2452,-0.2557,-0.2557,0,0,0,-0.2302,-0.2277,-0.231,-0.2326,-0.2347,-0.2357,-0.2362,-0.2396,-0.2412,-0.2422,-0.2443,-0.2452,-0.2452,-0.2556,-0.2557,-0.2588,0,0,0,-0.2299,-0.2274,-0.2308,-0.229,-0.2346,-0.2376,-0.2352,-0.2408,-0.2415,-0.2443,-0.2452,-0.2453,-0.2555,-0.2556,-0.2585,-0.2603,0,0,0,-0.2277,-0.2272,-0.2282,-0.2288,-0.2326,-0.2376,-0.2393,-0.241,-0.2428,-0.2451,-0.2453,-0.2554,-0.2556,-0.2583,-0.2599,-0.2604,0,0,0,-0.2243,-0.2272,-0.2281,-0.2332,-0.2325,-0.2423,-0.2393,-0.2451,-0.2477,-0.2452,-0.2555,-0.2557,-0.2582,-0.2596,-0.2602,-0.25,-0.2501,0,0,-0.2269,-0.2274,-0.2313,-0.2325,-0.2419,-0.2412,-0.2502,-0.2512,-0.2504,-0.2534,-0.2537,-0.2586,-0.2599,-0.2604,-0.2605,-0.2602,0,0,0,-0.2318,-0.2335,-0.237,-0.2422,-0.2489,-0.2536,-0.2557,-0.2562,-0.2585,-0.2529,-0.2614,-0.2622,-0.2624,-0.2559,-0.2558,-0.2509,-0.2565,-0.2565,-0.2565,-0.2275,-0.2346,-0.2412,-0.2496,-0.2557,-0.2625,-0.2661,-0.267,-0.265,-0.2665,-0.2668,-0.2724,-0.2658,-0.2655,-0.2608,-0.269,-0.269,-0.269,-0.269,-0.2308,-0.234,-0.2434,-0.252,-0.2592,-0.2657,-0.2738,-0.2734,-0.2763,-0.2732,-0.2731,-0.2622,-0.2655,-0.2605,-0.2693,-0.2692,-0.2692,-0.2692,-0.2692,-0.2262,-0.2286,-0.2354,-0.2462,-0.2555,-0.2651,-0.2718,-0.2769,-0.2787,-0.2808,-0.2704,-0.2701,-0.2636,-0.2787,-0.2787,-0.2787,-0.2787,-0.2787,-0.2787,-0.2161,-0.224,-0.2273,-0.2399,-0.245,-0.2548,-0.2686,-0.2725,-0.2743,-0.2739,-0.2738,-0.2653,-0.2753,-0.2724,-0.2789,-0.2789,-0.2788,-0.2788,-0.2788,-0.2075,-0.2098,-0.2146,-0.2194,-0.2325,-0.2354,-0.254,-0.2603,-0.2663,-0.2645,-0.2596,-0.2697,-0.2672,-0.2672,-0.2642,-0.2682,-0.2682,-0.2682,-0.2682,-0.1966,-0.2,-0.201,-0.2055,-0.2135,-0.2256,-0.2258,-0.2359,-0.245,-0.2451,-0.2529,-0.2478,-0.2485,-0.2447,-0.2452,-0.2417,-0.2399,-0.2399,-0.2399,-0.1874,-0.1906,-0.1858,-0.1933,-0.2029,-0.2102,-0.2046,-0.2119,-0.2282,-0.2388,-0.2487,-0.2499,-0.2428,-0.2442,-0.2384,-0.2394,-0.2338,0,0]},{"header":{"parameterUnit":"m.s-1","parameterCategory":2,"la1":30.2992,"la2":30.254,"lo1":-89.0895,"lo2":-89.0443,"dy":0.0025,"dx":0.0025,"nx":19,"ny":19,"refTime":"2026-04-08T03:00:00:Z","depth":"0","parameterNumber":3,"parameterNumberName":"V-component_of_CURRENTS"},"data":[0,0,0,-0.022,-0.0218,-0.0128,-0.0127,0.0024,0.0025,0,0,0,0,0,0,0,0,0,0,0,-0.0254,-0.0254,-0.022,-0.0218,-0.0128,-0.0127,0.0024,0.0025,0,0,0,0,0,0,0,0,0,0,0,-0.0254,-0.0254,-0.0253,-0.0218,-0.0128,-0.0127,0.0023,-0.005,0,0,0,0,0,0,0,0,0,0,-0.014,-0.019,-0.0254,-0.0253,-0.0218,-0.0128,-0.0127,-0.0053,-0.0045,-0.0013,0,-0.0012,0,0.0005,0.0034,0.0035,0,0,0,-0.0201,-0.0197,-0.0168,-0.0253,-0.0217,-0.0128,-0.0164,-0.0049,-0.004,-0.0002,-0.001,-0.0005,0.0007,0.0035,0.0036,0.0132,0.0132,0,0,-0.0206,-0.0235,-0.0175,-0.0163,-0.021,-0.0167,-0.0161,-0.0043,-0.0043,-0.001,-0.0001,0.001,0.0036,0.0037,0.0132,0.0132,0,0,0,-0.0232,-0.0239,-0.0213,-0.0169,-0.0159,-0.0165,-0.0158,-0.0048,-0.0039,0.0001,0.0011,0.0037,0.0039,0.0132,0.0132,0.0047,0,0,0,-0.0234,-0.0255,-0.0216,-0.0231,-0.0162,-0.0109,-0.0165,-0.0047,-0.0033,0.0011,0.0037,0.004,0.0132,0.0132,0.0049,-0.0007,0,0,0,-0.0255,-0.0257,-0.0251,-0.0233,-0.0201,-0.011,-0.0094,-0.0043,-0.0027,0.0035,0.004,0.0132,0.0132,0.0051,-0.0002,0.0025,0,0,0,-0.028,-0.0308,-0.0252,-0.0275,-0.0202,-0.0165,-0.0094,-0.0055,-0.0011,0.0038,0.0132,0.0132,0.0052,0.0001,0.0027,0.0077,0.0072,0,0,-0.0334,-0.0315,-0.0328,-0.0276,-0.0278,-0.0175,-0.0152,-0.0065,0.0005,0.0099,0.0101,0.0049,-0.0002,0.0026,0.0078,0.0073,0,0,0,-0.0358,-0.0373,-0.0362,-0.0347,-0.0288,-0.023,-0.0133,-0.0077,0.0007,0.003,0.0073,0.0044,0.0064,0.0099,0.0095,0.0331,0.0132,0.0132,0.0132,-0.0464,-0.0433,-0.0461,-0.0415,-0.0375,-0.026,-0.0201,-0.01,-0.003,-0.0004,-0.0006,-0.0023,0.0013,0.0011,0.0252,0.0026,0.0026,0.0026,0.0026,-0.0569,-0.0593,-0.054,-0.0558,-0.0467,-0.0424,-0.0266,-0.0196,-0.0093,-0.0051,-0.0026,0.0029,0.0002,0.0262,0.002,0.0021,0.0022,0.0022,0.0023,-0.0652,-0.0664,-0.0663,-0.0674,-0.0638,-0.0524,-0.0464,-0.0331,-0.0186,-0.0162,-0.006,-0.0057,0.0159,-0.0131,-0.0131,-0.0131,-0.0131,-0.0131,-0.0131,-0.0743,-0.0743,-0.0797,-0.0791,-0.0797,-0.0748,-0.0576,-0.0479,-0.0277,-0.0151,-0.0149,0.0191,-0.0069,-0.0077,-0.0134,-0.0133,-0.0133,-0.0133,-0.0133,-0.0859,-0.0847,-0.094,-0.0969,-0.0975,-0.0954,-0.0783,-0.0523,-0.0375,-0.0262,0.0195,-0.0106,-0.0064,-0.0059,-0.0065,-0.0115,-0.0115,-0.0115,-0.0115,-0.0929,-0.0933,-0.1055,-0.1119,-0.1141,-0.1048,-0.0902,-0.0577,-0.005,0.0245,0.0335,0.0408,0.0397,0.0472,0.0464,0.0473,0.056,0.0561,0.0562,-0.1001,-0.1032,-0.113,-0.1183,-0.1213,-0.1137,-0.097,-0.056,0.0236,0.0614,0.0655,0.0626,0.0757,0.072,0.0855,0.0826,0.0845,0,0]}],[{"header":{"parameterUnit":"m.s-1","parameterCategory":2,"la1":30.2992,"la2":30.254,"lo1":-89.0895,"lo2":-89.0443,"dy":0.0025,"dx":0.0025,"nx":19,"ny":19,"refTime":"2026-04-08T03:00:00:Z","depth":"2","parameterNumber":2,"parameterNumberName":"U-component_of_CURRENTS"},"data":[0,0,0,-0.21,-0.2101,-0.2175,-0.2175,-0.2229,-0.2229,0,0,0,0,0,0,0,0,0,0,0,-0.2064,-0.2065,-0.21,-0.2102,-0.2175,-0.2175,-0.2228,-0.2229,0,0,0,0,0,0,0,0,0,0,0,-0.2064,-0.2064,-0.2065,-0.2102,-0.2175,-0.2175,-0.2228,-0.2182,0,0,0,0,0,0,0,0,0,0,-0.2115,-0.2081,-0.2064,-0.2065,-0.2102,-0.2175,-0.2176,-0.218,-0.2185,-0.2185,0,-0.2196,0,-0.222,-0.2232,-0.2232,0,0,0,-0.2096,-0.2077,-0.2109,-0.2065,-0.2103,-0.2175,-0.214,-0.2183,-0.2188,-0.2191,-0.2197,-0.22,-0.2221,-0.2232,-0.2233,-0.2333,-0.2334,0,0,-0.2092,-0.2067,-0.2105,-0.2112,-0.2121,-0.2138,-0.2143,-0.2186,-0.2183,-0.2197,-0.2201,-0.2222,-0.2233,-0.2233,-0.2332,-0.2333,0,0,0,-0.2084,-0.2064,-0.2095,-0.2109,-0.213,-0.214,-0.2146,-0.2181,-0.2195,-0.2202,-0.2223,-0.2233,-0.2234,-0.2331,-0.2332,-0.2368,0,0,0,-0.2081,-0.206,-0.2093,-0.2077,-0.2129,-0.216,-0.2139,-0.2191,-0.2198,-0.2222,-0.2233,-0.2234,-0.233,-0.2332,-0.2365,-0.2383,0,0,0,-0.2061,-0.2058,-0.2068,-0.2075,-0.2113,-0.2161,-0.2176,-0.2193,-0.221,-0.2232,-0.2234,-0.233,-0.2332,-0.2362,-0.2379,-0.2386,0,0,0,-0.203,-0.2058,-0.2067,-0.2115,-0.2112,-0.2202,-0.2176,-0.2233,-0.2258,-0.2233,-0.2331,-0.2332,-0.2362,-0.2376,-0.2384,-0.2271,-0.2272,0,0,-0.2054,-0.2059,-0.2095,-0.2107,-0.2192,-0.2191,-0.2276,-0.229,-0.2284,-0.231,-0.2313,-0.2366,-0.2379,-0.2385,-0.2374,-0.2371,0,0,0,-0.2097,-0.2114,-0.2146,-0.2195,-0.2257,-0.2305,-0.2329,-0.2337,-0.2364,-0.2308,-0.2392,-0.24,-0.2402,-0.2331,-0.233,-0.2341,-0.2341,-0.234,-0.234,-0.2061,-0.2125,-0.2184,-0.2261,-0.232,-0.2388,-0.2427,-0.2441,-0.2423,-0.2443,-0.2448,-0.2506,-0.2432,-0.243,-0.2469,-0.2469,-0.2469,-0.2469,-0.247,-0.2089,-0.2118,-0.2205,-0.2285,-0.2356,-0.2422,-0.2503,-0.2505,-0.254,-0.2512,-0.2512,-0.2397,-0.2429,-0.2473,-0.2472,-0.2472,-0.2471,-0.2471,-0.2471,-0.2048,-0.2068,-0.2134,-0.2235,-0.2328,-0.2423,-0.2491,-0.2546,-0.2568,-0.2591,-0.2482,-0.2479,-0.2503,-0.2574,-0.2574,-0.2574,-0.2574,-0.2574,-0.2574,-0.1955,-0.2028,-0.2062,-0.218,-0.2231,-0.2329,-0.2468,-0.2506,-0.2523,-0.2519,-0.2518,-0.254,-0.2537,-0.2509,-0.2576,-0.2576,-0.2576,-0.2575,-0.2575,-0.1873,-0.1899,-0.1943,-0.1991,-0.2115,-0.2138,-0.2323,-0.238,-0.244,-0.2419,-0.2472,-0.2474,-0.2446,-0.2445,-0.2416,-0.2455,-0.2455,-0.2455,-0.2455,-0.1774,-0.1805,-0.1817,-0.1858,-0.1931,-0.2041,-0.2018,-0.2065,-0.2183,-0.2187,-0.2198,-0.2138,-0.2149,-0.2101,-0.2109,-0.2071,-0.202,-0.202,-0.2019,-0.1687,-0.1716,-0.1673,-0.1742,-0.1828,-0.1886,-0.1785,-0.1701,-0.1787,-0.1999,-0.2099,-0.2431,-0.2371,-0.2377,-0.2327,-0.233,-0.2279,0,0]},{"header":{"parameterUnit":"m.s-1","parameterCategory":2,"la1":30.2992,"la2":30.254,"lo1":-89.0895,"lo2":-89.0443,"dy":0.0025,"dx":0.0025,"nx":19,"ny":19,"refTime":"2026-04-08T03:00:00:Z","depth":"2","parameterNumber":3,"parameterNumberName":"V-component_of_CURRENTS"},"data":[0,0,0,-0.0202,-0.0201,-0.0118,-0.0117,0.0024,0.0025,0,0,0,0,0,0,0,0,0,0,0,-0.0233,-0.0233,-0.0202,-0.0201,-0.0118,-0.0117,0.0024,0.0025,0,0,0,0,0,0,0,0,0,0,0,-0.0233,-0.0233,-0.0233,-0.02,-0.0118,-0.0117,0.0023,-0.0044,0,0,0,0,0,0,0,0,0,0,-0.0127,-0.0174,-0.0233,-0.0233,-0.02,-0.0118,-0.0117,-0.0047,-0.004,-0.0009,0,-0.0009,0,0.0006,0.0034,0.0034,0,0,0,-0.0184,-0.0181,-0.0154,-0.0233,-0.02,-0.0118,-0.015,-0.0043,-0.0035,0.0001,-0.0007,-0.0002,0.0008,0.0035,0.0035,0.0122,0.0122,0,0,-0.0189,-0.0216,-0.016,-0.0149,-0.0194,-0.0153,-0.0148,-0.0038,-0.0038,-0.0007,0.0001,0.001,0.0035,0.0036,0.0122,0.0122,0,0,0,-0.0213,-0.0219,-0.0195,-0.0155,-0.0145,-0.0151,-0.0145,-0.0042,-0.0034,0.0003,0.0012,0.0036,0.0038,0.0122,0.0122,0.0041,0,0,0,-0.0215,-0.0234,-0.0198,-0.0213,-0.0148,-0.01,-0.0152,-0.0041,-0.0029,0.0011,0.0036,0.0039,0.0122,0.0122,0.0043,-0.0014,0,0,0,-0.0234,-0.0236,-0.0231,-0.0215,-0.0185,-0.0101,-0.0086,-0.0038,-0.0023,0.0034,0.0039,0.0122,0.0122,0.0045,-0.0009,0.0016,0,0,0,-0.0257,-0.0286,-0.0232,-0.0257,-0.0187,-0.0155,-0.0086,-0.0051,-0.001,0.0037,0.0122,0.0122,0.0045,-0.0007,0.0018,0.0061,0.0056,0,0,-0.0312,-0.0293,-0.0307,-0.0258,-0.0264,-0.0164,-0.0147,-0.0064,0.0004,0.0092,0.0094,0.0042,-0.0009,0.0017,0.0059,0.0054,0,0,0,-0.0337,-0.0353,-0.0343,-0.0331,-0.0277,-0.0223,-0.0131,-0.0078,0.0002,0.0027,0.0064,0.0035,0.0054,0.0084,0.008,0.0122,0.0122,0.0122,0.0122,-0.0441,-0.0413,-0.0443,-0.0401,-0.0365,-0.0257,-0.0202,-0.0106,-0.0037,-0.0012,-0.0015,-0.0033,-0.0001,-0.0003,0.0018,0.0017,0.0017,0.0017,0.0017,-0.0545,-0.0571,-0.0522,-0.0543,-0.0457,-0.0419,-0.0269,-0.0201,-0.0103,-0.0061,-0.0037,0.0016,-0.0012,0.0011,0.0012,0.0013,0.0013,0.0014,0.0014,-0.0628,-0.064,-0.0641,-0.0656,-0.0624,-0.0517,-0.0462,-0.0334,-0.0194,-0.0172,-0.0075,-0.0072,-0.0079,-0.014,-0.014,-0.014,-0.0141,-0.0141,-0.0141,-0.0715,-0.0717,-0.0771,-0.0769,-0.0777,-0.0733,-0.057,-0.0478,-0.0287,-0.0166,-0.0164,-0.0084,-0.0079,-0.0086,-0.0143,-0.0143,-0.0142,-0.0142,-0.0142,-0.0828,-0.0816,-0.0909,-0.0939,-0.0949,-0.093,-0.0769,-0.0524,-0.0384,-0.0278,-0.0125,-0.0125,-0.0085,-0.008,-0.0085,-0.0139,-0.0139,-0.0139,-0.0139,-0.0896,-0.0901,-0.102,-0.1084,-0.1107,-0.102,-0.0884,-0.0591,-0.0295,-0.0136,-0.0137,-0.0107,-0.0106,-0.0065,-0.0061,-0.0064,-0.0112,-0.0112,-0.0112,-0.0966,-0.0996,-0.1092,-0.1145,-0.1176,-0.1103,-0.0949,-0.0594,-0.0193,-0.0115,-0.0166,-0.013,-0.0085,-0.0085,-0.0017,-0.0012,-0.0014,0,0]}],[{"header":{"parameterUnit":"m.s-1","parameterCategory":2,"la1":30.2992,"la2":30.254,"lo1":-89.0895,"lo2":-89.0443,"dy":0.0025,"dx":0.0025,"nx":19,"ny":19,"refTime":"2026-04-08T03:00:00:Z","depth":"4","parameterNumber":2,"parameterNumberName":"U-component_of_CURRENTS"},"data":[0,0,0,-0.1446,-0.1448,-0.1579,-0.158,-0.1669,-0.167,0,0,0,0,0,0,0,0,0,0,0,-0.1402,-0.1403,-0.1445,-0.1449,-0.1579,-0.158,-0.1669,-0.167,0,0,0,0,0,0,0,0,0,0,0,-0.1402,-0.1403,-0.1404,-0.1449,-0.1579,-0.158,-0.1669,-0.159,0,0,0,0,0,0,0,0,0,0,-0.1473,-0.1443,-0.1403,-0.1404,-0.145,-0.1579,-0.158,-0.1587,-0.1595,-0.1587,0,-0.1613,0,-0.1641,-0.1674,-0.1674,0,0,0,-0.1451,-0.1437,-0.1472,-0.1404,-0.1451,-0.1579,-0.1521,-0.1592,-0.1601,-0.1597,-0.1615,-0.1619,-0.1642,-0.1674,-0.1674,-0.1782,-0.1783,0,0,-0.1443,-0.1425,-0.1466,-0.1478,-0.1492,-0.1517,-0.1525,-0.1598,-0.1608,-0.1615,-0.1622,-0.1644,-0.1674,-0.1675,-0.1781,-0.1782,0,0,0,-0.1421,-0.1419,-0.1454,-0.1473,-0.1502,-0.152,-0.153,-0.1605,-0.1617,-0.1623,-0.1645,-0.1675,-0.1675,-0.1781,-0.1782,-0.1822,0,0,0,-0.1417,-0.1407,-0.1451,-0.1441,-0.1501,-0.1566,-0.1535,-0.1612,-0.1622,-0.1644,-0.1675,-0.1676,-0.178,-0.1781,-0.1819,-0.1836,0,0,0,-0.1395,-0.1404,-0.1421,-0.144,-0.1495,-0.1566,-0.1583,-0.1615,-0.1634,-0.1674,-0.1676,-0.1779,-0.1781,-0.1817,-0.1832,-0.1843,0,0,0,-0.1367,-0.1396,-0.1421,-0.147,-0.1494,-0.1587,-0.1583,-0.1657,-0.1697,-0.1675,-0.178,-0.1782,-0.1816,-0.183,-0.1841,-0.1596,0,0,0,-0.1384,-0.1398,-0.1428,-0.1454,-0.1536,-0.1569,-0.1661,-0.171,-0.1717,-0.1748,-0.1752,-0.182,-0.1832,-0.1843,-0.1701,0,0,0,0,-0.1421,-0.1441,-0.1472,-0.153,-0.1598,-0.1671,-0.1726,-0.175,-0.1808,-0.1749,-0.1845,-0.1851,-0.1856,-0.1708,-0.179,-0.179,-0.179,-0.1789,-0.1789,-0.1392,-0.1448,-0.1505,-0.1583,-0.1652,-0.175,-0.181,-0.1854,-0.1851,-0.1889,-0.1902,-0.1964,-0.1812,-0.1923,-0.1923,-0.1923,-0.1923,-0.1924,-0.1924,-0.1401,-0.1425,-0.1525,-0.1604,-0.1699,-0.1785,-0.1892,-0.1917,-0.1982,-0.1965,-0.1967,-0.1785,-0.1928,-0.1927,-0.1927,-0.1926,-0.1926,-0.1925,-0.1925,-0.1354,-0.1371,-0.1453,-0.1567,-0.1687,-0.1806,-0.1886,-0.197,-0.2016,-0.2045,-0.1867,-0.1991,-0.1965,-0.2039,-0.204,-0.204,-0.204,-0.204,-0.204,-0.1252,-0.1333,-0.1389,-0.1524,-0.1598,-0.1716,-0.1881,-0.1919,-0.1993,-0.1893,-0.2053,-0.2002,-0.1999,-0.1972,-0.2042,-0.2042,-0.2042,-0.2042,-0.2041,-0.1154,-0.1208,-0.1266,-0.1338,-0.1492,-0.1557,-0.1758,-0.1786,-0.1802,-0.1754,-0.1801,-0.1812,-0.1769,-0.1771,-0.1735,-0.1738,-0.1735,-0.1732,0,-0.1064,-0.1101,-0.1153,-0.1217,-0.1284,-0.1452,-0.1445,-0.1529,-0.1595,-0.1539,-0.1783,-0.1834,-0.184,-0.1791,-0.1788,-0.1743,0,0,0,-0.0986,-0.1019,-0.1007,-0.1101,-0.1173,-0.127,-0.1429,-0.1395,-0.1602,-0.1549,-0.1658,-0.1678,-0.1896,-0.2049,-0.2011,-0.2006,-0.1961,0,0]},{"header":{"parameterUnit":"m.s-1","parameterCategory":2,"la1":30.2992,"la2":30.254,"lo1":-89.0895,"lo2":-89.0443,"dy":0.0025,"dx":0.0025,"nx":19,"ny":19,"refTime":"2026-04-08T03:00:00:Z","depth":"4","parameterNumber":3,"parameterNumberName":"V-component_of_CURRENTS"},"data":[0,0,0,-0.0133,-0.0133,-0.0082,-0.0082,0.0018,0.0019,0,0,0,0,0,0,0,0,0,0,0,-0.0151,-0.0151,-0.0133,-0.0133,-0.0082,-0.0082,0.0018,0.0019,0,0,0,0,0,0,0,0,0,0,0,-0.0151,-0.0151,-0.0151,-0.0132,-0.0082,-0.0082,0.0018,-0.0026,0,0,0,0,0,0,0,0,0,0,-0.0078,-0.011,-0.0151,-0.0151,-0.0132,-0.0083,-0.0082,-0.0028,-0.0023,0.0001,0,-0.0001,0,0.0006,0.0025,0.0026,0,0,0,-0.0119,-0.0115,-0.0098,-0.0151,-0.0132,-0.0083,-0.0101,-0.0025,-0.002,0.0008,-0.0,0.0004,0.0008,0.0026,0.0026,0.0083,0.0083,0,0,-0.0121,-0.014,-0.0102,-0.0095,-0.0131,-0.0103,-0.01,-0.0022,-0.0023,0.0,0.0006,0.001,0.0026,0.0027,0.0083,0.0083,0,0,0,-0.0139,-0.0143,-0.0128,-0.0098,-0.0095,-0.0102,-0.0098,-0.0026,-0.0021,0.0007,0.0011,0.0027,0.0028,0.0084,0.0083,0.001,0,0,0,-0.014,-0.0153,-0.0129,-0.014,-0.0097,-0.0067,-0.0104,-0.0026,-0.0017,0.001,0.0027,0.0029,0.0084,0.0083,0.0013,-0.0038,0,0,0,-0.0151,-0.0155,-0.0152,-0.0141,-0.0125,-0.0068,-0.0058,-0.0024,-0.0015,0.0026,0.0029,0.0084,0.0084,0.0014,-0.0034,-0.0016,0,0,0,-0.0166,-0.0192,-0.0153,-0.0179,-0.0126,-0.0115,-0.0058,-0.0039,-0.0012,0.0027,0.0084,0.0083,0.0015,-0.0031,-0.0015,-0.0045,0,0,0,-0.0212,-0.0198,-0.0214,-0.0178,-0.0197,-0.012,-0.0121,-0.0058,-0.0002,0.0064,0.0065,0.0012,-0.0033,-0.0016,-0.0054,0,0,0,0,-0.0237,-0.0253,-0.0251,-0.0251,-0.0218,-0.0185,-0.0118,-0.0076,-0.0015,0.0012,0.0029,0.0003,0.0016,0.0005,0.0083,0.0083,0.0083,0.0083,0.0083,-0.0317,-0.0304,-0.0338,-0.0317,-0.0299,-0.0226,-0.0189,-0.0114,-0.0055,-0.0036,-0.0044,-0.0066,-0.0081,-0.0017,-0.0017,-0.0017,-0.0018,-0.0018,-0.0018,-0.0401,-0.0425,-0.0405,-0.0437,-0.0384,-0.0367,-0.0258,-0.0202,-0.013,-0.0088,-0.007,-0.0056,-0.0025,-0.0023,-0.0022,-0.0022,-0.0021,-0.0021,-0.002,-0.0459,-0.0471,-0.049,-0.0525,-0.0522,-0.0453,-0.042,-0.0322,-0.0209,-0.0196,-0.0155,-0.0102,-0.0108,-0.0167,-0.0168,-0.0168,-0.0168,-0.0168,-0.0168,-0.0507,-0.0527,-0.0585,-0.0612,-0.0636,-0.0619,-0.0509,-0.044,-0.0314,-0.0249,-0.0209,-0.0116,-0.0111,-0.0115,-0.0171,-0.017,-0.017,-0.017,-0.0169,-0.0576,-0.0581,-0.0673,-0.0717,-0.0762,-0.0739,-0.065,-0.0483,-0.0407,-0.0324,-0.0248,-0.0243,-0.0212,-0.0205,-0.0211,-0.0297,-0.0298,-0.0298,0,-0.0612,-0.0624,-0.0739,-0.0815,-0.085,-0.08,-0.0702,-0.0589,-0.0426,-0.0428,-0.0406,-0.0329,-0.0322,-0.0294,-0.0287,-0.0299,0,0,0,-0.0651,-0.0683,-0.0766,-0.084,-0.0881,-0.0755,-0.0666,-0.0602,-0.0467,-0.0377,-0.0313,-0.0309,-0.0264,-0.0178,-0.0118,-0.0112,-0.0115,0,0]}]]